ECHOSTAR 19

导读

ECHOSTAR 19(又称Jupiter 2)是美国EchoStar公司运营的高通量通信卫星,于2016年12月18日由Atlas V-431火箭从卡纳维拉尔角发射升空。卫星重达6765公斤,定位于西经97.1度的地球同步轨道,设计在轨寿命15年。它采用先进HTS技术,主要为北美地区提供高速卫星互联网、电视广播及企业通信服务,支持偏远地区网络覆盖,是EchoStar星座中提升容量与服务能力的重要卫星。

基本信息
目录编号:
41893
目录名称:
ECHOSTAR 19
国际标识:
2016-079A
轨道中心:
EARTH
卫星名称:
ECHOSTAR 19
卫星全名:
--
卫星状态:
在轨 (已飞行3554 天)
发射日期:
2016-12-18 UTC
国别 :
美国 (US)
星等 :
--
该卫星已列入 空间交会检测服务 Space Conjunction Data Service (SCDS) ,当前飞行风险评估等级: 无高风险
轨道信息
数据来源 国际轨道数据 AOE轨道数据
星历时间 2026-09-11T13:34:32+0800
9小时前
查看轨道信息
2026-09-06T13:00:00+0800
5天前
查看轨道信息
半长轴 42164.672km 42164.896km
偏心率 0.0001532 0.0001396
轨道倾角 0.017° 0.018°
近地点辐角 23.972° 42.300°
升交点赤经 146.421° 131.322°
平近点角 166.397° 149.574°
近地点 35780.075km 35780.872km
远地点 35792.995km 35792.646km
周期 1436.094分钟 1436.105分钟
每日圈数 1.00272 1.002712
详细信息
使用方式:
暂无
2D轨道图
3D轨道图
轨道高度分析图
轨道倾角分析图
轨道综合分析图
查看轨道综合分析图
与全量物体交会距离演化趋势
与全量物体交会风险概率演化趋势